Temp_Advection
nan nan nan nan nan nan nan nan nan nan nan nan nan nan nan nan nan nan nan nan nan nan nan nan nan nan nan nan nan nan nan nan nan nan nan nan nan nan nan nan nan nan nan nan nan nan nan
nan -0 -0 -0 -0 -0 -0 0 -0 -0 0 0 0 0 0 -0 -0 0 -0 -0 -0 -0 -0 -0 -0 -0 0 -0 -0 -0 -0 -0 -0 -0 -0 -0 -0 -0 -1 -0 -0 -0 -0 -0 -0 -0 nan
nan 0 -0 -0 -0 -0 -0 -0 -0 -0 -0 -0 0 0 0 0 0 0 0 0 -0 -0 0 0 -0 -0 0 -0 0 -0 -0 -0 -0 -0 -0 -0 0 -0 -0 -0 0 -0 -0 0 -0 -0 nan
nan -0 0 0 0 -0 -0 -0 -0 -0 -0 -0 -0 0 0 0 0 0 0 0 0 0 0 0 -0 -0 0 -0 -0 -0 -0 -0 -0 -0 -0 -0 0 -0 -0 -0 -0 -0 0 -0 -0 -0 nan
nan -0 -0 -0 -0 -0 0 -0 -0 -0 -0 -0 -0 -0 -0 0 0 0 0 0 0 0 0 -0 -0 0 0 -0 -0 -0 -0 -0 -0 -0 0 0 -0 -1 -0 -0 -0 -0 -0 0 0 -0 nan
nan -0 -0 -0 -0 -0 -0 -0 -0 -0 -0 -0 -0 -0 -0 -0 0 0 0 0 0 0 -0 -0 -0 -0 -0 -0 -0 -0 -0 -0 -0 0 0 -0 -1 -1 -0 0 0 0 0 0 0 -0 nan
nan -0 -0 -0 -0 -0 -0 -0 -0 0 -0 -0 -0 -0 -0 -0 -0 -0 -0 -0 -0 0 -0 -0 -0 -0 -0 -0 -0 -0 -0 -0 -0 -1 -1 -1 -0 -0 -0 0 0 0 0 0 0 -0 nan
nan -0 -0 -0 -0 0 0 -0 -0 -0 -0 -0 -0 -0 -0 -0 -0 -0 -0 -0 -0 0 -0 -0 -0 -0 -0 -0 -0 -0 -0 -0 -1 -1 -0 0 -0 0 -0 0 0 0 0 0 0 0 nan
nan -0 -0 -0 -0 -0 -0 0 0 -0 -0 -0 -0 -0 -0 -0 -0 -0 -1 -1 -0 -0 0 0 -0 -0 -0 -0 -0 -1 -1 -0 -1 -0 -0 0 -0 -0 0 0 0 -0 0 0 0 0 nan
nan -0 -0 -0 -0 -0 -1 -0 -0 -0 -0 -0 -0 -0 -0 -0 -0 -0 -0 -0 -0 0 0 0 0 -0 -0 -0 -0 -0 -0 -0 -0 -0 -0 0 0 0 0 -0 0 0 -0 -0 -0 -0 nan
nan 0 -0 -0 0 -0 -0 -1 -1 -0 -0 -0 -0 -0 -0 -0 -0 -0 0 0 0 -0 0 -0 -0 0 -0 -0 0 -0 0 -0 -0 -0 0 0 0 0 0 0 0 -0 -0 -0 0 0 nan
nan -0 -0 -0 -0 -0 -0 -0 -1 -1 -0 -0 -1 -0 -0 -0 0 0 0 0 -0 -0 0 0 0 -0 -0 -0 -0 -0 -0 -0 -0 -0 -0 0 -0 -0 -0 -0 -0 -0 -0 -0 -0 -0 nan
nan -0 -0 -0 -0 -0 -0 -0 -0 -1 -1 -0 -0 -1 -0 -0 -0 0 0 -0 0 -0 0 0 0 -0 -0 -0 -0 -0 -0 -0 0 -0 0 -0 -0 0 0 -0 -0 0 0 0 1 0 nan
nan -0 -0 0 -0 -0 -0 -0 -0 -0 -0 -1 -1 -1 -0 -0 -0 -0 0 -0 -0 0 0 -0 0 0 0 -0 0 0 -0 0 0 0 0 -0 0 -0 0 -0 -0 -0 0 0 0 0 nan
nan -0 -0 0 -0 -0 0 0 -0 -0 -0 -0 -1 -1 -0 -0 -0 -0 -0 -0 0 0 -0 0 -0 -0 0 0 0 0 0 0 -0 0 0 0 0 -0 0 0 0 0 0 0 -0 0 nan
nan -0 -0 -0 -0 -0 -0 0 -0 -0 0 0 -1 -1 -0 0 0 0 -0 0 0 0 0 0 -0 0 0 0 0 0 -0 0 0 0 0 0 0 0 0 -0 -0 0 0 -0 0 -0 nan
nan -0 -0 -0 -0 -0 -0 0 -0 -0 -0 0 -0 -0 -0 0 0 0 0 0 0 0 0 0 0 0 0 0 0 0 0 -0 -0 -0 0 0 0 -0 -0 0 0 0 0 0 -0 0 nan
nan -0 -1 -1 -1 -0 -1 -0 0 -0 -0 -0 0 -0 0 0 0 0 -0 0 0 0 0 0 0 -0 0 0 0 -0 0 0 -0 -0 0 0 0 0 -0 -0 -0 0 0 0 0 1 nan
nan -0 -0 -1 -1 -1 -1 -1 -0 -0 0 0 -0 -0 0 1 0 0 0 0 0 0 0 0 0 0 0 0 0 0 0 0 0 -0 -0 -0 0 -0 0 -0 0 -0 -0 -0 -0 -0 nan
nan -0 -0 -0 -0 -0 -0 -1 -1 -1 -0 -0 0 0 0 1 0 0 0 -0 0 0 0 0 0 -0 0 0 0 0 0 0 0 -0 -0 -0 0 -0 0 -0 -0 -0 -0 -0 -0 -0 nan
nan 0 0 -0 -0 -0 -0 -0 -1 -1 -0 -0 0 0 0 0 0 0 0 0 0 0 0 0 0 -0 -0 0 -0 0 0 -0 -0 0 0 0 0 0 0 0 -0 -0 0 0 -0 -1 nan
nan -0 -0 -0 -0 -0 0 0 -1 -1 -0 -0 -0 0 0 0 -0 0 0 0 -0 0 -0 -0 -0 0 1 0 0 -0 -0 -0 -0 0 0 0 0 -0 -0 -0 0 0 -0 -1 0 1 nan
nan -3 -2 -1 -0 0 0 0 -0 -0 -0 -0 -0 0 0 0 0 0 -0 -0 0 0 -0 1 1 0 1 -0 -0 0 0 0 0 -0 -0 0 0 -0 0 -0 -0 -0 -0 1 0 0 nan
nan -1 -1 -2 -2 -1 -0 0 0 -0 -0 0 -0 0 -0 0 -0 -0 -0 0 0 0 1 -0 1 0 0 0 0 0 -0 -0 0 0 0 -0 0 -0 0 -0 -0 0 0 -0 0 0 nan
nan -0 -1 -1 -1 -1 -1 -0 -0 -0 -0 0 0 -0 -0 -0 0 0 0 1 0 0 0 0 1 0 0 0 -0 0 0 -0 0 0 0 -0 0 -0 0 0 0 0 0 0 0 0 nan
nan -1 -0 -1 -1 -1 -1 -1 -0 -0 -0 -0 -0 0 1 -0 -0 1 0 0 0 0 0 0 0 1 0 0 0 -0 -0 0 0 0 0 0 -0 0 -0 -0 0 0 0 0 -0 0 nan
nan -0 -0 -1 -1 -1 -1 -0 -1 -0 -0 -0 -1 -0 1 0 -1 0 -0 0 1 0 0 -0 -0 0 0 0 0 0 0 0 0 -0 0 0 0 0 0 0 0 0 0 0 0 0 nan
nan 0 -0 -0 -1 -1 -1 -1 -0 -0 -0 -0 -1 -0 1 0 0 0 0 2 0 -0 0 -0 -0 -0 0 -0 0 0 0 0 0 -0 -0 -0 -0 0 0 0 0 -0 0 -0 0 0 nan
nan nan nan nan nan nan nan nan nan nan nan nan nan nan nan nan nan nan nan nan nan nan nan nan nan nan nan nan nan nan nan nan nan nan nan nan nan nan nan nan nan nan nan nan nan nan nan
Wind_Speed
14 14 15 16 17 19 21 21 21 21 21 19 19 18 15 12 12 12 12 11 7 5 3 5 10 11 7 3 5 11 7 7 7 6 3 2 4 3 4 4 4 5 3 9 11 14 15
12 13 15 16 17 18 19 19 20 20 21 20 19 18 17 14 13 13 11 9 5 5 5 5 9 9 5 1 6 12 7 7 7 6 7 4 5 8 8 5 5 5 14 10 5 7 8
14 14 14 16 17 19 20 20 21 22 22 22 21 20 19 15 13 14 12 9 6 9 10 8 8 10 6 1 6 13 8 7 7 7 6 7 6 2 5 5 11 10 5 3 5 2 3
14 16 16 17 17 19 20 21 21 22 23 23 22 22 22 20 15 14 16 11 9 12 11 9 8 7 1 3 6 9 6 6 6 5 5 8 8 8 6 13 5 4 4 2 1 2 8
12 12 14 15 16 18 18 19 21 23 25 25 24 24 23 21 19 15 16 14 11 14 10 8 8 5 1 4 7 12 8 3 3 5 6 5 3 6 5 4 3 5 3 3 2 4 2
14 14 13 13 14 16 17 18 19 21 23 24 25 27 24 22 21 16 17 16 13 11 8 10 7 4 3 7 7 15 5 6 2 2 1 2 5 4 4 4 4 4 3 3 4 3 3
14 14 14 14 13 14 15 17 18 21 22 24 26 27 25 23 21 15 17 12 5 1 6 4 5 3 6 10 4 15 7 2 2 6 5 7 5 1 3 1 1 3 1 3 2 1 3
16 17 16 14 13 13 15 16 17 19 21 23 25 26 26 26 19 15 17 8 5 5 4 3 2 3 5 10 4 14 8 4 6 4 5 4 3 2 3 2 3 2 2 4 3 1 3
17 17 18 18 17 16 16 18 19 20 22 23 24 25 26 25 16 18 15 9 5 9 2 3 3 2 4 6 4 11 9 4 7 5 6 4 2 0 1 3 2 1 3 2 3 6 3
17 17 16 16 17 17 18 18 19 21 22 23 26 27 26 25 12 16 10 6 6 8 4 2 3 4 4 3 3 9 6 3 5 4 3 4 3 5 3 3 2 3 3 2 3 4 4
15 16 16 17 18 18 19 19 19 20 21 23 24 26 27 24 17 12 11 4 4 6 4 1 2 2 5 3 3 4 9 3 3 4 4 2 4 3 4 2 2 1 2 1 1 2 4
17 17 18 18 18 18 19 19 20 19 21 22 24 24 25 24 16 13 9 2 2 5 5 2 1 3 3 2 2 4 2 5 4 3 4 1 0 0 1 2 1 1 3 2 2 2 2
21 22 22 21 19 20 18 18 19 20 20 21 22 23 24 23 13 9 5 4 4 4 2 1 1 2 1 3 2 3 3 3 3 0 3 1 2 1 1 2 2 4 3 4 4 3 4
26 25 25 25 26 24 23 22 21 22 22 22 22 22 23 21 8 5 4 4 2 1 4 1 1 1 4 1 2 1 1 2 3 1 2 3 4 4 2 0 2 2 1 3 6 3 5
23 24 25 25 24 26 25 26 24 24 24 25 24 22 21 11 4 2 1 2 6 4 2 1 1 2 2 2 2 1 6 4 5 7 6 4 4 1 2 2 2 5 4 4 5 4 2
23 22 23 22 22 21 23 26 28 27 26 27 26 20 13 4 3 2 2 6 5 3 6 2 4 4 3 4 2 3 5 5 6 6 3 3 3 2 3 3 2 2 5 4 2 3 6
23 24 24 24 24 22 22 23 23 25 25 26 22 7 8 4 6 3 3 6 4 3 4 5 4 4 7 5 5 5 5 4 5 5 3 3 2 1 3 7 7 4 3 3 3 4 5
24 24 25 24 24 24 24 21 19 23 24 21 11 4 7 7 1 1 3 4 2 5 7 4 3 4 6 5 5 5 7 2 12 14 7 5 3 4 7 2 1 3 6 7 4 6 3
25 24 24 23 23 24 23 23 19 20 18 19 7 7 9 9 3 4 3 4 5 5 5 6 6 7 2 4 3 6 4 0 14 9 7 7 2 3 2 3 4 4 6 4 4 3 9
28 26 26 24 23 22 21 20 19 20 20 17 8 3 5 12 7 4 4 5 4 6 5 6 3 3 3 4 6 4 4 3 9 7 6 11 4 6 8 2 4 5 6 12 9 4 4
31 30 28 27 26 25 26 27 27 24 20 18 6 5 5 3 7 7 6 6 6 5 8 10 3 11 8 6 3 6 3 2 2 7 6 4 6 5 7 7 7 8 8 15 20 20 10
30 30 30 29 28 26 25 23 21 21 18 19 7 5 4 6 4 5 6 5 7 5 7 6 10 8 12 9 10 5 6 4 6 4 6 5 3 2 4 10 9 15 15 20 20 20 22
28 28 27 28 28 27 25 21 18 19 19 17 14 18 10 4 1 2 5 7 6 5 13 8 12 5 11 18 8 2 7 3 6 9 9 6 4 2 4 2 5 10 19 18 8 6 17
24 25 26 25 25 26 25 24 19 18 21 21 22 24 7 10 5 6 4 10 7 12 12 3 7 7 3 2 6 4 2 5 5 7 8 6 5 3 3 2 4 3 1 1 14 5 8
26 25 26 25 25 25 24 24 25 21 19 25 25 24 13 10 9 4 11 9 7 7 5 6 9 8 11 5 2 2 1 3 6 6 5 4 4 3 3 3 9 1 4 6 6 6 8
26 24 27 27 24 25 25 23 25 26 25 26 27 23 22 9 10 15 4 9 3 4 1 5 7 13 12 3 3 5 5 5 3 2 1 4 1 5 3 4 6 3 3 6 5 4 5
25 27 28 25 26 26 25 25 24 24 25 27 33 26 30 13 20 19 11 8 9 4 1 4 5 8 10 2 4 5 5 3 6 8 7 5 3 13 10 4 9 4 9 8 3 4 13
25 28 28 26 27 28 27 25 23 23 24 24 31 31 35 22 29 26 25 20 8 9 5 11 6 6 4 5 5 3 4 5 2 4 6 9 9 5 6 5 10 14 7 7 4 12 15
26 24 26 28 29 26 27 26 26 24 24 23 30 32 37 32 17 23 30 27 30 25 13 23 5 8 11 4 5 2 3 1 1 3 2 5 5 5 10 5 1 30 1 12 16 13 11
Wind_Direction
22 20 18 18 17 15 13 12 11 9 7 6 8 7 7 9 7 4 2 357 360 355 315 280 315 320 325 334 8 345 347 352 5 6 13 34 56 65 78 83 72 80 112 60 96 93 94
23 20 17 14 13 13 14 14 13 12 9 6 4 6 5 1 1 2 1 358 360 3 337 313 322 348 318 83 341 349 357 354 356 11 29 51 82 94 89 61 60 90 103 118 72 95 115
12 12 14 15 15 13 12 13 14 13 12 9 6 3 1 354 351 353 353 348 322 320 323 323 326 326 325 74 351 358 356 3 11 22 51 66 118 112 96 96 114 118 90 76 28 109 118
10 8 8 10 13 15 14 15 15 15 14 12 9 4 1 356 346 342 346 335 332 331 319 314 318 326 295 2 356 353 3 25 33 39 68 80 104 98 77 118 63 66 83 162 18 6 169
12 14 13 10 11 15 19 22 20 17 14 11 8 4 359 355 349 338 339 328 301 321 311 320 317 313 321 340 356 8 15 38 40 67 82 93 135 82 86 84 41 13 223 215 232 39 188
6 8 11 14 16 16 18 19 20 19 17 14 9 3 356 353 350 343 341 335 305 305 308 294 287 315 12 338 346 3 348 22 28 111 93 70 55 77 37 66 224 205 232 269 250 356 343
7 8 8 9 12 14 15 15 12 10 11 12 10 6 4 358 351 348 349 350 352 305 360 47 16 4 342 347 343 358 7 341 42 71 47 17 60 89 141 91 94 93 141 252 245 14 316
14 9 7 7 5 2 2 2 4 3 3 4 3 3 2 358 352 352 355 25 14 324 328 6 3 4 1 359 340 6 11 26 37 49 340 35 95 181 120 68 124 134 186 238 285 250 342
13 14 11 9 5 359 354 353 354 355 355 357 358 360 358 357 357 351 4 21 28 359 317 335 11 20 9 3 51 5 22 49 65 58 14 87 101 186 353 30 162 162 210 196 247 318 239
356 356 360 359 0 359 356 354 351 351 353 354 355 356 359 358 358 352 5 6 360 351 42 330 342 8 4 12 26 18 22 54 51 143 117 122 201 171 175 185 195 231 130 84 305 3 263
335 335 336 338 340 343 345 344 346 345 347 348 352 354 354 357 351 349 340 318 338 347 1 16 354 301 355 66 319 13 27 37 115 131 147 179 172 178 186 170 145 76 37 327 203 190 9
314 318 319 320 321 324 328 333 336 338 340 342 345 347 349 347 347 343 344 351 336 45 269 9 328 318 318 35 25 337 23 70 103 104 48 99 63 348 72 76 79 68 96 85 65 88 317
307 311 310 308 311 314 315 318 323 329 333 335 338 342 344 339 340 344 352 335 33 136 105 284 277 5 351 314 351 44 30 14 202 310 226 138 212 122 124 109 38 58 42 314 328 348 251
309 309 307 306 307 305 308 310 314 317 323 326 328 332 333 333 339 349 359 38 182 225 212 129 240 280 236 358 238 1 56 258 226 141 124 204 299 166 138 3 148 95 145 166 262 284 292
305 308 309 307 306 301 300 302 307 309 313 317 320 323 322 316 328 318 48 64 229 198 123 231 241 229 243 218 240 267 209 211 181 190 174 154 234 138 98 141 162 160 178 149 118 172 352
304 304 303 307 309 302 298 299 298 299 301 306 308 312 291 267 302 265 50 234 230 170 134 115 224 204 253 206 210 219 188 167 179 185 184 170 287 202 133 108 36 226 137 89 37 290 271
304 303 302 303 301 299 301 302 303 298 297 298 300 284 251 237 296 225 221 232 242 224 186 173 224 248 226 224 208 224 220 184 162 147 143 142 152 115 74 198 171 152 183 92 113 178 209
298 298 301 305 303 306 306 306 304 308 308 296 268 251 216 261 222 191 231 215 211 204 195 223 255 248 225 198 234 247 231 248 163 152 168 187 158 223 213 113 61 191 187 167 172 211 217
296 296 294 296 300 300 304 306 309 304 301 294 262 255 251 225 213 217 243 259 238 173 205 179 223 209 166 232 257 206 220 232 169 161 166 180 204 331 280 31 353 209 194 174 88 94 204
293 291 290 292 292 296 302 307 312 303 303 303 269 259 224 205 241 188 195 224 244 219 204 201 212 169 154 224 213 268 247 197 199 192 172 163 193 209 242 156 124 202 199 198 189 182 191
295 291 289 288 288 287 289 296 299 302 308 306 235 257 211 212 237 202 189 183 186 225 220 209 211 213 164 224 238 235 158 120 217 217 175 161 220 218 264 252 215 209 205 203 210 219 215
292 292 291 288 286 286 288 295 297 298 299 303 276 250 272 269 269 206 177 210 218 225 167 210 236 198 196 215 198 186 141 183 208 164 164 189 251 132 267 250 260 258 233 237 228 231 247
304 299 292 287 283 282 282 286 294 292 297 294 288 285 267 237 169 160 207 218 234 182 220 234 211 155 213 233 276 307 226 245 194 172 181 171 197 133 275 2 321 281 239 217 199 203 226
299 301 302 299 291 283 279 275 272 279 278 284 282 291 265 279 205 199 223 209 243 234 285 336 193 159 186 149 155 174 31 353 209 209 179 162 149 166 279 321 265 248 203 327 216 231 214
296 295 296 297 296 294 287 277 266 261 273 272 273 271 265 273 261 232 236 249 260 255 240 217 205 215 149 120 107 236 328 281 228 201 191 177 162 207 252 238 305 301 185 175 176 255 192
295 293 290 285 284 290 289 283 271 265 262 274 267 266 258 266 253 255 240 215 245 217 244 203 189 198 166 160 143 220 230 210 230 225 89 165 10 195 145 243 251 222 163 138 107 276 178
292 289 292 294 285 281 284 285 282 272 265 263 271 263 253 255 274 256 247 241 193 182 217 132 149 157 178 179 199 212 226 175 198 187 174 164 204 218 217 252 281 178 158 149 110 226 165
309 293 290 288 289 284 280 282 284 282 272 267 274 269 252 256 273 266 255 250 220 192 192 146 123 174 174 198 205 202 213 209 196 171 174 176 172 190 186 221 267 145 115 178 187 139 160
295 306 297 292 286 288 283 281 284 286 282 265 273 267 271 249 256 260 267 256 250 248 215 178 184 153 170 178 206 185 190 162 201 248 119 217 199 187 198 217 91 179 156 185 159 158 183
Height
1578 1576 1574 1572 1569 1567 1564 1561 1558 1555 1552 1548 1545 1542 1540 1537 1534 1532 1530 1529 1527 1525 1525 1524 1522 1520 1519 1519 1519 1517 1515 1514 1512 1511 1510 1510 1511 1512 1516 1518 1520 1525 1531 1533 1535 1535 1537
1578 1576 1575 1573 1571 1568 1565 1561 1559 1556 1553 1549 1546 1543 1540 1538 1536 1533 1530 1529 1528 1526 1525 1524 1523 1520 1519 1520 1520 1517 1515 1514 1513 1512 1511 1511 1512 1514 1516 1521 1523 1528 1531 1535 1536 1536 1539
1580 1578 1576 1573 1571 1569 1566 1563 1560 1557 1554 1550 1547 1544 1542 1539 1536 1533 1531 1529 1528 1527 1525 1524 1523 1522 1521 1522 1519 1517 1515 1514 1513 1512 1512 1512 1513 1515 1518 1523 1527 1529 1534 1535 1537 1538 1539
1581 1580 1577 1575 1573 1570 1567 1565 1562 1558 1555 1551 1548 1545 1542 1539 1537 1534 1532 1529 1527 1526 1525 1523 1522 1521 1520 1520 1519 1518 1515 1514 1513 1512 1513 1514 1515 1516 1519 1525 1528 1532 1534 1535 1536 1536 1539
1581 1579 1577 1576 1573 1571 1568 1565 1563 1560 1557 1553 1549 1545 1542 1539 1536 1533 1531 1529 1526 1524 1523 1523 1523 1521 1521 1520 1519 1516 1515 1514 1514 1514 1513 1514 1515 1519 1524 1528 1534 1536 1532 1534 1536 1538 1538
1583 1580 1578 1575 1573 1571 1569 1566 1563 1559 1556 1553 1550 1546 1542 1538 1535 1532 1530 1527 1525 1524 1522 1522 1522 1524 1522 1522 1519 1517 1515 1515 1514 1514 1515 1516 1517 1524 1532 1533 1529 1539 1536 1537 1535 1541 1538
1584 1581 1579 1576 1574 1572 1569 1566 1564 1561 1557 1554 1550 1546 1541 1537 1533 1530 1528 1525 1527 1525 1522 1523 1525 1524 1524 1523 1522 1519 1516 1515 1514 1515 1522 1521 1528 1532 1538 1538 1537 1537 1537 1538 1537 1540 1539
1585 1583 1580 1577 1575 1573 1570 1567 1564 1561 1558 1554 1551 1547 1543 1538 1533 1530 1527 1525 1528 1530 1526 1524 1522 1523 1522 1521 1521 1520 1518 1518 1517 1524 1524 1526 1534 1538 1539 1537 1536 1537 1538 1540 1540 1540 1540
1586 1583 1581 1579 1577 1574 1571 1569 1566 1563 1559 1555 1552 1548 1544 1538 1534 1532 1528 1528 1527 1526 1526 1526 1524 1522 1523 1523 1521 1519 1519 1519 1523 1529 1534 1529 1541 1540 1541 1542 1538 1542 1539 1542 1543 1541 1537
1587 1585 1581 1579 1577 1574 1572 1568 1566 1564 1560 1555 1552 1548 1543 1540 1537 1533 1530 1528 1528 1527 1532 1527 1527 1525 1524 1523 1524 1523 1521 1522 1523 1529 1532 1535 1534 1535 1538 1537 1539 1534 1541 1543 1544 1546 1542
1586 1584 1581 1579 1577 1573 1571 1569 1565 1562 1559 1555 1551 1547 1544 1539 1537 1534 1533 1530 1527 1529 1543 1529 1527 1527 1525 1525 1527 1523 1522 1521 1526 1528 1532 1526 1535 1534 1534 1535 1539 1539 1542 1545 1546 1549 1556
1583 1581 1579 1577 1574 1571 1569 1567 1563 1560 1557 1555 1551 1545 1542 1539 1537 1534 1530 1527 1529 1535 1541 1527 1528 1527 1526 1522 1522 1523 1524 1524 1527 1528 1531 1535 1536 1536 1537 1538 1539 1542 1544 1547 1550 1553 1560
1581 1579 1576 1574 1571 1569 1566 1562 1560 1560 1556 1553 1550 1544 1540 1537 1535 1532 1530 1530 1535 1541 1529 1525 1526 1528 1528 1527 1524 1524 1525 1528 1527 1520 1528 1536 1535 1536 1537 1538 1540 1541 1541 1536 1537 1556 1523
1579 1576 1574 1571 1570 1567 1565 1562 1559 1557 1554 1551 1548 1544 1540 1536 1533 1531 1529 1531 1533 1518 1520 1525 1526 1527 1526 1528 1526 1526 1526 1525 1531 1529 1532 1526 1523 1536 1537 1540 1537 1543 1545 1547 1538 1541 1547
1576 1573 1570 1567 1564 1563 1561 1559 1555 1554 1551 1549 1545 1542 1538 1534 1533 1534 1530 1540 1526 1520 1524 1526 1526 1526 1522 1526 1529 1526 1526 1522 1522 1527 1521 1527 1525 1534 1535 1537 1539 1543 1543 1548 1563 1576 1575
1571 1569 1566 1564 1560 1558 1556 1556 1553 1550 1547 1545 1542 1538 1533 1531 1532 1533 1535 1530 1523 1520 1522 1526 1523 1521 1517 1522 1526 1527 1520 1518 1520 1521 1524 1523 1524 1533 1536 1537 1541 1541 1544 1550 1556 1551 1545
1566 1565 1563 1560 1558 1555 1551 1549 1549 1546 1542 1540 1538 1533 1530 1528 1530 1532 1535 1528 1523 1522 1522 1526 1523 1521 1519 1519 1522 1522 1509 1514 1515 1521 1524 1526 1528 1538 1537 1535 1535 1544 1546 1546 1549 1557 1554
1561 1560 1559 1557 1554 1551 1550 1544 1543 1543 1539 1534 1533 1529 1525 1525 1529 1530 1529 1521 1521 1519 1519 1521 1525 1522 1520 1519 1521 1521 1510 1509 1511 1514 1522 1523 1529 1534 1526 1529 1530 1531 1535 1534 1529 1546 1560
1556 1555 1554 1552 1549 1547 1544 1542 1539 1538 1536 1533 1527 1523 1520 1520 1525 1525 1520 1519 1518 1518 1519 1520 1519 1518 1518 1519 1519 1514 1510 1511 1510 1510 1515 1519 1530 1531 1519 1533 1533 1533 1526 1525 1532 1538 1542
1550 1549 1548 1546 1544 1543 1542 1538 1536 1534 1533 1530 1526 1519 1518 1516 1515 1513 1514 1514 1515 1514 1510 1512 1513 1515 1516 1517 1515 1508 1510 1511 1510 1511 1513 1514 1522 1509 1487 1502 1516 1524 1519 1519 1519 1534 1522
1543 1542 1541 1540 1538 1538 1537 1534 1533 1532 1531 1527 1520 1514 1509 1511 1510 1507 1510 1505 1508 1510 1510 1511 1508 1505 1506 1516 1511 1509 1506 1511 1514 1513 1512 1513 1520 1516 1508 1509 1509 1506 1503 1507 1507 1497 1502
1537 1535 1534 1531 1530 1530 1531 1530 1530 1529 1527 1525 1519 1514 1509 1506 1504 1505 1505 1502 1501 1499 1503 1503 1501 1494 1501 1504 1495 1501 1502 1508 1505 1509 1512 1512 1510 1512 1508 1503 1502 1499 1497 1493 1492 1492 1489
1532 1530 1526 1524 1522 1522 1522 1522 1522 1521 1523 1520 1516 1514 1510 1501 1503 1506 1501 1494 1488 1492 1487 1487 1487 1495 1497 1491 1495 1497 1499 1499 1499 1501 1506 1512 1510 1512 1504 1507 1507 1496 1474 1474 1480 1480 1478
1523 1523 1522 1519 1516 1514 1513 1513 1514 1515 1514 1514 1515 1514 1509 1493 1495 1494 1491 1490 1488 1491 1490 1490 1489 1489 1490 1491 1493 1497 1497 1497 1498 1499 1497 1503 1507 1508 1509 1507 1503 1468 1472 1472 1470 1471 1475
1515 1516 1516 1513 1511 1509 1507 1507 1507 1507 1506 1505 1504 1506 1503 1490 1488 1486 1487 1488 1488 1486 1488 1487 1488 1489 1489 1492 1496 1497 1501 1498 1490 1493 1495 1496 1499 1501 1502 1515 1473 1469 1469 1471 1471 1467 1467
1511 1507 1506 1506 1505 1502 1499 1498 1499 1500 1502 1496 1495 1497 1495 1487 1478 1479 1477 1479 1480 1483 1484 1482 1484 1487 1490 1491 1491 1490 1482 1483 1492 1494 1494 1497 1496 1495 1508 1504 1480 1465 1466 1467 1469 1476 1466
1501 1501 1499 1497 1497 1495 1493 1491 1489 1489 1491 1492 1487 1488 1485 1480 1476 1477 1472 1470 1471 1478 1480 1481 1482 1487 1490 1488 1487 1485 1483 1477 1483 1485 1494 1496 1499 1493 1497 1496 1475 1460 1464 1467 1471 1465 1463
1496 1493 1491 1490 1488 1487 1486 1484 1482 1481 1481 1485 1479 1480 1477 1471 1469 1469 1464 1464 1466 1467 1469 1474 1481 1482 1487 1486 1481 1477 1477 1475 1477 1473 1478 1481 1486 1490 1493 1495 1481 1457 1466 1467 1457 1458 1461
1489 1487 1485 1483 1480 1478 1477 1475 1476 1474 1475 1475 1471 1472 1470 1463 1458 1459 1457 1455 1456 1456 1457 1461 1456 1459 1466 1471 1472 1469 1471 1479 1471 1472 1470 1473 1465 1470 1467 1456 1451 1451 1450 1451 1453 1455 1459